timestamp,wind_dir_avg,wind_spd_avg,wind_spd_max_dir,wind_spd_gust,battery_voltage,lat,long
2024-02-20 00:04:00+00:00,228.0,5.42,222.0,6.28,12.25,47.59359,-54.27349
2024-02-20 00:14:00+00:00,229.0,4.99,225.0,6.63,12.17,47.59359,-54.27349
2024-02-20 00:24:00+00:00,230.0,5.62,228.0,6.27,12.17,47.59359,-54.27349
2024-02-20 00:34:00+00:00,222.0,5.93,218.0,7.01,12.17,47.59359,-54.27349
2024-02-20 00:44:00+00:00,223.0,6.21,217.0,7.18,12.17,47.59359,-54.27349
2024-02-20 00:54:00+00:00,228.0,6.6,232.0,9.26,12.17,47.59359,-54.27349
2024-02-20 01:04:00+00:00,230.0,6.29,229.0,7.99,12.17,47.59359,-54.27349
2024-02-20 01:14:00+00:00,226.0,6.69,240.0,7.63,12.17,47.59359,-54.27349
2024-02-20 01:24:00+00:00,229.0,7.05,234.0,8.54,12.17,47.59359,-54.27349
2024-02-20 01:34:00+00:00,227.0,6.98,225.0,7.95,12.17,47.59359,-54.27349
2024-02-20 01:44:00+00:00,232.0,7.26,240.0,8.64,12.17,47.59359,-54.27349
2024-02-20 01:54:00+00:00,241.0,7.25,241.0,8.43,12.17,47.59359,-54.27349
2024-02-20 02:04:00+00:00,243.0,5.13,238.0,5.7,12.17,47.59359,-54.27349
2024-02-20 02:14:00+00:00,244.0,6.35,249.0,7.33,12.17,47.59359,-54.27349
2024-02-20 02:24:00+00:00,228.0,7.16,226.0,8.34,12.17,47.59359,-54.27349
2024-02-20 02:34:00+00:00,222.0,6.46,227.0,7.67,12.17,47.59359,-54.27349
2024-02-20 02:44:00+00:00,228.0,6.61,222.0,7.72,12.17,47.59359,-54.27349
2024-02-20 02:54:00+00:00,229.0,6.92,221.0,8.83,12.17,47.59359,-54.27349
2024-02-20 03:04:00+00:00,233.0,7.33,222.0,8.32,12.17,47.59359,-54.27349
2024-02-20 03:14:00+00:00,228.0,7.8,236.0,9.22,12.09,47.59359,-54.27349
2024-02-20 03:24:00+00:00,229.0,8.07,236.0,9.76,12.09,47.59359,-54.27349
2024-02-20 03:34:00+00:00,225.0,7.14,226.0,8.3,12.09,47.59359,-54.27349
2024-02-20 03:44:00+00:00,231.0,7.4,224.0,8.31,12.09,47.59359,-54.27349
2024-02-20 03:54:00+00:00,252.0,9.02,264.0,13.8,12.09,47.59359,-54.27349
2024-02-20 04:04:00+00:00,254.0,12.36,249.0,14.61,12.09,47.59359,-54.27349
2024-02-20 04:14:00+00:00,260.0,9.23,261.0,12.87,12.09,47.59359,-54.27349
2024-02-20 04:24:00+00:00,261.0,8.45,265.0,12.78,12.09,47.59359,-54.27349
2024-02-20 04:34:00+00:00,258.0,10.74,261.0,14.03,12.09,47.59359,-54.27349
2024-02-20 04:44:00+00:00,263.0,12.53,264.0,13.93,12.09,47.59359,-54.27349
2024-02-20 04:54:00+00:00,262.0,9.22,266.0,13.02,12.09,47.59359,-54.27349
2024-02-20 05:04:00+00:00,252.0,7.68,250.0,8.6,12.09,47.59359,-54.27349
2024-02-20 05:14:00+00:00,254.0,7.67,250.0,9.13,12.09,47.59359,-54.27349
2024-02-20 05:24:00+00:00,252.0,8.32,253.0,11.97,12.09,47.59359,-54.27349
2024-02-20 05:34:00+00:00,259.0,9.0,260.0,13.41,12.09,47.59359,-54.27349
2024-02-20 05:44:00+00:00,264.0,7.58,265.0,8.6,12.09,47.59359,-54.27349
2024-02-20 05:54:00+00:00,267.0,11.62,268.0,13.88,12.09,47.59359,-54.27349
2024-02-20 06:04:00+00:00,278.0,8.33,278.0,10.24,12.09,47.59359,-54.27349
2024-02-20 06:14:00+00:00,287.0,11.01,290.0,14.9,12.09,47.59359,-54.27349
2024-02-20 06:24:00+00:00,305.0,11.16,299.0,15.08,12.09,47.59359,-54.27349
2024-02-20 06:34:00+00:00,292.0,11.73,290.0,15.17,12.09,47.59359,-54.27349
2024-02-20 06:44:00+00:00,292.0,13.04,289.0,15.11,12.09,47.59359,-54.27349
2024-02-20 06:54:00+00:00,291.0,11.66,289.0,15.06,12.09,47.59359,-54.27349
2024-02-20 07:04:00+00:00,282.0,9.2,280.0,13.03,12.09,47.59359,-54.27349
2024-02-20 07:14:00+00:00,286.0,7.92,284.0,13.2,12.09,47.59359,-54.27349
2024-02-20 07:24:00+00:00,280.0,8.44,276.0,12.42,12.09,47.59359,-54.27349
2024-02-20 07:34:00+00:00,278.0,12.92,276.0,14.32,12.09,47.59359,-54.27349
2024-02-20 07:44:00+00:00,283.0,9.55,277.0,13.31,12.09,47.59359,-54.27349
2024-02-20 07:54:00+00:00,282.0,11.74,285.0,14.21,12.09,47.59359,-54.27349
2024-02-20 08:04:00+00:00,298.0,8.29,301.0,9.27,12.09,47.59359,-54.27349
2024-02-20 08:14:00+00:00,281.0,10.63,282.0,13.58,12.01,47.59359,-54.27349
2024-02-20 08:24:00+00:00,276.0,12.44,278.0,13.96,12.01,47.59359,-54.27349
2024-02-20 08:34:00+00:00,276.0,12.43,281.0,13.99,12.01,47.59359,-54.27349
2024-02-20 08:44:00+00:00,278.0,11.56,281.0,13.75,12.01,47.59359,-54.27349
2024-02-20 08:54:00+00:00,278.0,11.77,285.0,14.18,12.01,47.59359,-54.27349
2024-02-20 09:04:00+00:00,286.0,12.5,283.0,14.27,12.01,47.59359,-54.27349
2024-02-20 09:14:00+00:00,280.0,11.75,297.0,14.42,12.01,47.59359,-54.27349
2024-02-20 09:24:00+00:00,281.0,11.86,286.0,13.88,12.01,47.59359,-54.27349
2024-02-20 09:34:00+00:00,283.0,12.37,289.0,14.18,12.01,47.59359,-54.27349
2024-02-20 09:44:00+00:00,274.0,12.56,275.0,13.95,12.01,47.59359,-54.27349
2024-02-20 09:54:00+00:00,283.0,11.93,282.0,13.76,12.01,47.59359,-54.27349
2024-02-20 10:04:00+00:00,288.0,12.16,295.0,14.75,12.01,47.59359,-54.27349
2024-02-20 10:14:00+00:00,278.0,12.56,272.0,14.86,11.93,47.59359,-54.27349
2024-02-20 10:24:00+00:00,286.0,10.0,290.0,11.68,11.93,47.59359,-54.27349
2024-02-20 10:34:00+00:00,278.0,10.53,277.0,12.49,11.93,47.59359,-54.27349
2024-02-20 10:44:00+00:00,282.0,9.54,285.0,11.1,11.93,47.59359,-54.27349
2024-02-20 10:54:00+00:00,280.0,9.82,283.0,12.28,11.93,47.59359,-54.27349
2024-02-20 11:04:00+00:00,277.0,9.55,278.0,12.18,11.93,47.59359,-54.27349
2024-02-20 11:14:00+00:00,276.0,10.53,289.0,13.08,13.44,47.59359,-54.27349
2024-02-20 11:24:00+00:00,285.0,11.2,283.0,14.27,13.44,47.59359,-54.27349
2024-02-20 11:34:00+00:00,281.0,11.01,288.0,12.54,13.44,47.59359,-54.27349
2024-02-20 11:44:00+00:00,278.0,13.12,280.0,15.29,13.44,47.59359,-54.27349
2024-02-20 11:54:00+00:00,278.0,11.96,285.0,13.95,13.44,47.59359,-54.27349
2024-02-20 12:04:00+00:00,279.0,11.99,288.0,13.88,13.44,47.59359,-54.27349
2024-02-20 12:14:00+00:00,274.0,10.7,269.0,13.5,14.48,47.59359,-54.27349
2024-02-20 12:24:00+00:00,279.0,11.32,282.0,14.36,14.48,47.59359,-54.27349
2024-02-20 12:34:00+00:00,283.0,10.42,295.0,13.12,14.48,47.59359,-54.27349
2024-02-20 12:44:00+00:00,279.0,13.85,286.0,15.06,14.48,47.59359,-54.27349
2024-02-20 12:54:00+00:00,275.0,14.1,269.0,16.76,14.48,47.59359,-54.27349
2024-02-20 13:04:00+00:00,273.0,14.34,278.0,17.02,14.48,47.59359,-54.27349
2024-02-20 13:14:00+00:00,273.0,11.65,265.0,13.8,13.6,47.59359,-54.27349
2024-02-20 13:24:00+00:00,277.0,13.41,280.0,14.82,13.6,47.59359,-54.27349
2024-02-20 13:34:00+00:00,280.0,11.64,281.0,14.2,13.6,47.59359,-54.27349
2024-02-20 13:44:00+00:00,275.0,11.79,271.0,13.51,13.6,47.59359,-54.27349
2024-02-20 13:54:00+00:00,274.0,12.88,281.0,14.41,13.6,47.59359,-54.27349
2024-02-20 14:04:00+00:00,277.0,10.32,276.0,12.93,13.6,47.59359,-54.27349
2024-02-20 14:14:00+00:00,289.0,10.62,291.0,12.64,14.48,47.59359,-54.27349
2024-02-20 14:24:00+00:00,274.0,11.44,277.0,13.74,14.48,47.59359,-54.27349
2024-02-20 14:34:00+00:00,287.0,11.27,286.0,14.26,14.48,47.59359,-54.27349
2024-02-20 14:44:00+00:00,280.0,10.84,282.0,12.96,14.48,47.59359,-54.27349
2024-02-20 14:54:00+00:00,282.0,12.93,280.0,14.58,14.48,47.59359,-54.27349
2024-02-20 15:04:00+00:00,277.0,9.46,275.0,10.95,14.48,47.59359,-54.27349
2024-02-20 16:14:00+00:00,276.0,12.51,280.0,14.34,14.08,47.59359,-54.27349
2024-02-20 16:24:00+00:00,273.0,12.25,274.0,14.36,14.08,47.59359,-54.27349
2024-02-20 16:34:00+00:00,279.0,11.42,274.0,13.33,14.08,47.59359,-54.27349
2024-02-20 16:44:00+00:00,278.0,12.73,286.0,15.01,14.08,47.59359,-54.27349
2024-02-20 16:54:00+00:00,283.0,13.77,276.0,17.32,14.08,47.59359,-54.27349
2024-02-20 17:04:00+00:00,276.0,12.56,281.0,14.09,14.08,47.59359,-54.27349
2024-02-20 17:14:00+00:00,267.0,14.03,276.0,17.38,13.68,47.59359,-54.27349
2024-02-20 17:24:00+00:00,275.0,12.51,266.0,14.33,13.68,47.59359,-54.27349
2024-02-20 17:34:00+00:00,280.0,12.96,295.0,15.75,13.68,47.59359,-54.27349
2024-02-20 17:44:00+00:00,281.0,12.93,279.0,14.65,13.68,47.59359,-54.27349
2024-02-20 17:54:00+00:00,279.0,10.68,284.0,13.23,13.68,47.59359,-54.27349
2024-02-20 18:04:00+00:00,282.0,11.65,285.0,13.12,13.68,47.59359,-54.27349
2024-02-20 18:14:00+00:00,279.0,12.19,283.0,13.88,13.68,47.59359,-54.27349
2024-02-20 18:24:00+00:00,279.0,13.46,279.0,14.95,13.68,47.59359,-54.27349
2024-02-20 18:34:00+00:00,278.0,13.39,285.0,17.46,13.68,47.59359,-54.27349
2024-02-20 18:44:00+00:00,290.0,13.08,292.0,15.4,13.68,47.59359,-54.27349
2024-02-20 18:54:00+00:00,293.0,12.29,292.0,14.67,13.68,47.59359,-54.27349
2024-02-20 19:04:00+00:00,283.0,12.86,286.0,14.62,13.68,47.59359,-54.27349
2024-02-20 19:14:00+00:00,282.0,12.63,292.0,14.89,13.76,47.59359,-54.27349
2024-02-20 19:24:00+00:00,279.0,13.71,282.0,15.12,13.76,47.59359,-54.27349
2024-02-20 19:34:00+00:00,278.0,12.31,275.0,14.44,13.76,47.59359,-54.27349
2024-02-20 19:44:00+00:00,286.0,13.28,294.0,15.5,13.76,47.59359,-54.27349
2024-02-20 19:54:00+00:00,276.0,12.9,285.0,14.93,13.76,47.59359,-54.27349
2024-02-20 20:04:00+00:00,288.0,12.96,291.0,15.32,13.76,47.59359,-54.27349
2024-02-20 20:14:01+00:00,290.0,13.07,299.0,16.2,13.6,47.59359,-54.27349
2024-02-20 20:24:01+00:00,284.0,10.71,275.0,13.1,13.6,47.59359,-54.27349
2024-02-20 20:34:01+00:00,276.0,11.92,282.0,14.14,13.6,47.59359,-54.27349
2024-02-20 20:44:01+00:00,277.0,14.34,289.0,18.27,13.6,47.59359,-54.27349
2024-02-20 20:54:01+00:00,280.0,13.3,278.0,16.73,13.6,47.59359,-54.27349
2024-02-20 21:04:01+00:00,276.0,13.89,271.0,15.36,13.6,47.59359,-54.27349
2024-02-20 21:14:00+00:00,292.0,13.7,298.0,17.06,13.05,47.59359,-54.27349
2024-02-20 21:24:00+00:00,284.0,12.16,284.0,15.38,13.05,47.59359,-54.27349
2024-02-20 21:34:00+00:00,287.0,11.66,287.0,14.57,13.05,47.59359,-54.27349
2024-02-20 21:44:00+00:00,279.0,10.65,278.0,12.26,13.05,47.59359,-54.27349
2024-02-20 21:54:00+00:00,285.0,10.04,286.0,12.06,13.05,47.59359,-54.27349
2024-02-20 22:04:00+00:00,292.0,9.47,288.0,11.66,13.05,47.59359,-54.27349
2024-02-20 22:14:00+00:00,292.0,10.68,300.0,12.33,12.41,47.59359,-54.27349
2024-02-20 22:24:00+00:00,290.0,11.92,289.0,13.8,12.41,47.59359,-54.27349
2024-02-20 22:34:00+00:00,283.0,10.95,283.0,13.74,12.41,47.59359,-54.27349
2024-02-20 22:44:00+00:00,284.0,11.78,286.0,13.19,12.41,47.59359,-54.27349
2024-02-20 22:54:00+00:00,287.0,13.33,292.0,15.23,12.41,47.59359,-54.27349
2024-02-20 23:04:00+00:00,284.0,13.25,286.0,15.24,12.41,47.59359,-54.27349
2024-02-20 23:14:00+00:00,287.0,12.76,291.0,15.31,12.25,47.59359,-54.27349
2024-02-20 23:24:00+00:00,283.0,12.19,280.0,13.86,12.25,47.59359,-54.27349
2024-02-20 23:34:00+00:00,288.0,11.93,288.0,14.45,12.25,47.59359,-54.27349
2024-02-20 23:44:00+00:00,293.0,10.37,295.0,12.07,12.25,47.59359,-54.27349
2024-02-20 23:54:00+00:00,291.0,11.23,289.0,15.65,12.25,47.59359,-54.27349
